ATLAS 5 CENTAUR DEB, 46652

Orbit data source: Space-Track

ATLAS 5 CENTAUR DEB, 46652 is space debris in HEO originally from a launch on Wed, 17 Sep 2014 UTC launched from the Air Force Eastern Test Range (AFETR). Debris objects in space refer to the collection of defunct objects orbiting the Earth. Examples of debris include non-operational satellites, rocket bodies, and fragments generated from explosions, collisions, or faulty payload assembly.

Loading next visibility...
Identifier
46652, 2014-055DC
Orbit
HEO
Last TLE update
1 year ago
Origin
Manufacturer
Unknown
Mission
Spacecraft
Bus & Motor
Unknown
Mass
Unknown
Launch date (UTC)
2014-09-17 (11 years ago)
Launch vehicle
Unknown
Launch site
Air Force Eastern Test Range (AFETR)
Object type
Payload
Rocket body
Debris
Shape & HBR
Unknown
Radar Cross Section
RCS unknown

Expand to show TLE details & history

TLE from 1 year ago
0 ATLAS 5 CENTAUR DEB
1 46652U 14055DC  24099.56760409 -.00000108  00000-0  00000+0 0  9998
2 46652  20.3344 235.1777 3967316 355.1400   1.7695  1.82545949 23219
Epoch: 2024-04-08T13:37Z
Definitive object data (Epoch: 2024-04-08T13:37:20.993Z)
Latitude
0.00002°
Longitude
-166.51368°
Altitude
10,693.355 km
Speed
5.71 km/s
True Right ascension
15h 40m 31s
True Declination
0° 00' 00"
Sunlit
Object was in daylight at TLE epoch
Visualization TLE readout
Latitude
-8.97104°
Longitude
10.39387°
Altitude
31,740.289 km
Speed
2.612 km/s
Apparent Right ascension
03h 02m 06s
Apparent Declination
-15° 57' 19"
Sunlit
Object is in daylight
Visualization observer readout
Local Sidereal Time
07:04:33
Azimuth
238.49° WSW
Elevation
10.689°
Doppler factor
1
Orbital elements
Apogee altitude
33,124.454 km
Perigee altitude
10,683.598 km
Semi-major axis
28,282.163 km
Eccentricity
0.3967316
Inclination
20.3344°
RAAN
235.1777°
Arg. of periapsis
355.14°
True anomaly
4.46059°
Mean anomaly
1.7695°
Eccentric anomaly
2.93235°
Mean motion
0.45632 °/min
BSTAR
Unknown
Orbital period
788.91 mins
Loading maneuver chart data...
Loading SW <> Apogee altitude chart data...

ATLAS 5 CENTAUR DEB Visibility forecast

Observer location: undefined°, undefined°

Span
Click to sort rows by Start time (UTC) header in descending order
Start Az.
Max El. time (UTC)
Max El. Az.
Max El.
End time (UTC)
End Az.
8 mins2025-04-29 23:32:20.573Z238.476° WSW2025-04-29 23:32:20.573Z238.476° WSW10.5°2025-04-29 23:40:20.573Z238.28° WSW
149 mins2025-04-30 06:01:20.573Z222.534° SW2025-04-30 07:29:20.573Z154.174° SSE34.233°2025-04-30 08:30:20.573Z88.594° E
|